ATLAS 5 CENTAUR DEB, 43981

Orbit data source: Space-Track

ATLAS 5 CENTAUR DEB, 43981 is space debris in HEO originally from a launch on Wed, 17 Sep 2014 UTC launched from the Air Force Eastern Test Range (AFETR). Debris objects in space refer to the collection of defunct objects orbiting the Earth. Examples of debris include non-operational satellites, rocket bodies, and fragments generated from explosions, collisions, or faulty payload assembly.

Loading next visibility...
Identifier
43981, 2014-055AL
Orbit
HEO
Last TLE update
2 days ago
Origin
Flag of USUnited Launch Alliance/Lockheed Martin (US)
Manufacturer
Unknown
Mission
Spacecraft
Bus & Motor
Unknown
Mass
Unknown
Launch date (UTC)
2014-09-17 (11 years ago)
Launch vehicle
Unknown
Launch site
Air Force Eastern Test Range (AFETR)
Object type
Payload
Rocket body
Debris
Shape & HBR
Unknown
Radar Cross Section
Small (<0.1 m²)

Expand to show TLE details & history

TLE from 2 days ago
0 ATLAS 5 CENTAUR DEB
1 43981U 14055AL  25184.43724757 -.00000041  00000-0  00000+0 0  9994
2 43981  19.3427 173.1970 5212487 107.3832 314.1653  1.78789318 44535
Epoch: 2025-07-03T10:29Z
TLE epoch observation values (Epoch: 2025-07-03T10:29:38.19Z)
Latitude
-0°
Longitude
94.06141°
Altitude
18,334.089 km
Speed
4.285 km/s
True Right ascension
11h 32m 41s
True Declination
0° 00' 00"
Sunlit
Object was in daylight at epoch
Visualization orbit readout
Latitude
5.63947°
Longitude
-102.48991°
Altitude
9,667.275 km
Speed
5.982 km/s
Apparent Right ascension
21h 34m 31s
Apparent Declination
-7° 31' 58"
Sunlit
Object is in daylight
Visualization observer readout
Local Sidereal Time
06:26:03
Azimuth
294.583° NW
Elevation
-36.98°
Doppler factor
1
Orbital elements
Apogee altitude
37,247.242 km
Perigee altitude
7,351.181 km
Semi-major axis
28,677.349 km
Eccentricity
0.52125
Inclination
19.3427°
RAAN
173.197°
Arg. of periapsis
107.3832°
True anomaly
Unknown
Mean anomaly
314.1653°
Eccentric anomaly
Unknown
Mean motion
0.44693 °/min
Orbital period
805.5 mins
BSTAR
0
Loading maneuver chart data...
Loading SW <> Apogee altitude chart data...
Loading historical data...
Loading historical data...
Loading historical data...
Loading historical data...
Loading historical data...
Loading historical data...
Loading historical data...

ATLAS 5 CENTAUR DEB Visibility forecast

Observer location: undefined°, undefined°

Span
Click to sort rows by Start time (UTC) header in descending order
Start Az.
Max El. time (UTC)
Max El. Az.
Max El.
End time (UTC)
End Az.
89 mins2025-07-06 06:39:30.689Z261.056° W2025-07-06 07:21:30.689Z190.014° SSW37.688°2025-07-06 08:08:30.689Z118.86° SE
|